Home   Weather   Santa Barbara   Past weeks
Flag for USA

Past Weather in Santa Barbara, California, USA — Yesterday and Last 2 Weeks

Now
61 °F

Clear.


Feels Like: 61 °F
Forecast: 78 / 54 °F
Wind: 6 mph from North

Location: Santa Barbara Municipal Airport

Current Time: Oct 19, 2019 at 6:35:40 am

Latest Report: Oct 19, 2019 at 5:53 am


Visibility: 10 mi

Pressure: 29.87 "Hg

Humidity: 46%

Dew Point: 40 °F

Location of Santa BarbaraLocation

Past Weather in Santa Barbara — Graph

°F

Santa Barbara Temperature Yesterday

Maximum temperature yesterday: 81 °F (at 4:53 pm)
Minimum temperature yesterday: 54 °F (at 4:53 am)
Average temperature yesterday: 69 °F

High & Low Weather Summary for the Past Weeks

 TemperatureHumidityPressure
High82 °F (Oct 11, 1:53 pm)100% (Oct 7, 8:53 am)30.06 "Hg (Oct 7, 8:53 am)
Low45 °F (Oct 11, 5:53 am)6% (Oct 12, 1:53 pm)29.73 "Hg (Oct 17, 3:53 pm)
Average63 °F66%29.90 "Hg
* Reported Oct 4 4:53 am — Oct 19 4:53 am, Santa Barbara. Weather by CustomWeather, © 2019

Note: Actual official high and low records may vary slightly from our data, if they occured in-between our weather recording intervals... More about our weather records

Advertising

Santa Barbara Weather History for the Previous 24 Hours

Scroll right to see more
 ConditionsComfort  
Time TempWeatherWind HumidityBarometerVisibility
4:53 am
Sat, Oct 19
64 °FClear.10 mph47%29.86 "Hg10 mi
3:53 am69 °FClear.8 mph29%29.87 "Hg10 mi
2:53 am72 °FClear.15 mph25%29.88 "Hg10 mi
1:53 am70 °FClear.6 mph29%29.90 "Hg10 mi
12:53 am68 °FClear.9 mph32%29.90 "Hg10 mi
11:53 pm
Fri, Oct 18
70 °FClear.15 mph27%29.90 "Hg10 mi
10:53 pm71 °FClear.12 mph27%29.91 "Hg10 mi
9:53 pm70 °FClear.9 mph28%29.90 "Hg10 mi
8:53 pm73 °FClear.18 mph22%29.90 "Hg10 mi
7:53 pm69 °FClear.3 mph32%29.88 "Hg10 mi
6:53 pm70 °FClear.7 mph32%29.87 "Hg9 mi
5:53 pm75 °FSunny.12 mph30%29.85 "Hg10 mi
4:53 pm81 °FSunny.13 mph25%29.85 "Hg10 mi
3:53 pm74 °FSunny.6 mph46%29.87 "Hg10 mi
2:53 pm73 °FSunny.8 mph37%29.88 "Hg10 mi
1:53 pm75 °FSunny.9 mph32%29.91 "Hg10 mi
12:53 pm75 °FSunny.5 mph31%29.93 "Hg10 mi
11:53 am72 °FSunny.13 mph40%29.94 "Hg10 mi
10:53 am78 °FSunny.9 mph22%29.94 "Hg10 mi
9:53 am76 °FSunny.18 mph19%29.94 "Hg10 mi
8:53 am72 °FSunny.5 mph24%29.93 "Hg10 mi
7:53 am67 °FSunny.13 mph30%29.92 "Hg10 mi
6:53 am55 °FClear.3 mph49%29.91 "Hg10 mi
Weather by CustomWeather, © 2019

See weather overview